SCP
-0 -0 0 0 -0 -0 -0 -0 -0 -0 -0 -0 -0 -0 -0 -0 0 0 -0 0 0 0 0 0 0 0 0 0 0 0 0 0 0 0 0 0 0 0 0 0 0 0 0 0 0 0 0 0 -0
-0 -0 0 -0 0 0 0 -0 -0 -0 -0 0 0 -0 -0 -0 -0 0 0 0 0 0 0 0 0 0 0 0 0 0 0 0 0 0 0 -0 -0 -0 0 0 0 0 0 0 0 0 0 0 0
-0 -0 0 -0 -0 0 -0 -0 -0 -0 -0 -0 0 -0 0 -0 -0 0 0 0 0 0 0 0 0 0 0 0 0 0 0 0 0 0 0 0 0 0 0 0 0 0 0 0 0 0 0 0 0
0 -0 -0 0 0 0 -0 0 -0 0 0 0 0 -0 0 0 0 0 0 0 0 0 0 0 0 0 0 0 0 0 0 0 0 0 0 0 0 0 0 0 0 0 0 0 0 0 0 0 0
0 -0 0 0 0 0 0 0 0 0 0 0 0 0 0 0 0 0 0 0 0 0 0 0 0 0 0 0 0 0 0 0 0 0 0 0 0 0 0 0 0 0 0 0 0 0 0 0 0
0 -0 -0 0 0 0 0 0 0 0 -0 0 0 0 0 0 0 0 0 0 0 0 0 0 0 0 0 0 0 0 0 0 0 0 0 0 0 0 0 0 0 0 0 0 0 0 0 0 0
0 0 0 0 0 0 0 0 0 0 0 0 0 0 0 0 0 0 0 0 0 0 0 0 0 0 0 0 0 0 0 0 0 0 0 0 0 0 0 0 0 0 0 0 0 0 0 0 0
0 0 0 0 0 0 0 0 0 0 0 0 0 0 0 0 0 0 0 0 0 0 -0 -0 0 0 0 0 0 0 0 0 0 0 0 0 0 0 0 0 0 0 0 0 0 0 0 0 0
0 0 0 0 0 0 0 0 0 0 0 0 0 0 0 0 0 0 0 0 0 0 0 0 0 0 0 0 0 0 0 0 0 0 0 0 0 0 0 0 0 0 0 0 0 0 0 0 0
0 0 0 0 0 0 0 0 0 0 0 0 0 0 0 0 0 0 0 0 0 0 0 0 0 0 0 0 0 0 0 0 0 0 0 0 0 0 0 0 0 0 0 0 0 0 0 0 0
0 0 0 0 0 0 0 0 0 0 0 0 0 0 0 0 0 0 0 0 0 0 0 0 0 0 0 0 1 0 0 0 0 0 0 0 0 0 0 0 0 0 0 0 0 0 0 0 0
0 0 0 0 0 0 0 0 0 0 0 0 0 0 0 0 0 0 0 0 0 0 0 0 0 0 0 0 0 0 0 0 0 0 0 0 0 0 0 0 0 0 0 0 0 0 0 0 0
0 0 0 0 0 0 0 0 0 0 0 0 0 0 0 0 0 0 0 0 0 0 0 0 0 0 0 0 0 0 0 0 0 0 0 0 0 0 0 0 0 0 0 0 0 0 0 0 0
0 0 0 0 0 0 0 0 0 0 0 0 0 0 0 0 0 0 0 0 0 0 0 0 0 0 0 0 0 0 0 0 0 0 0 0 0 0 0 0 0 0 0 0 0 0 0 0 0
0 0 0 0 0 0 0 0 0 0 0 0 0 0 0 0 0 0 0 0 0 0 0 0 0 0 0 0 0 0 0 0 0 0 0 0 0 0 0 0 0 0 0 0 0 0 0 0 0
0 0 0 0 0 0 0 0 0 0 0 0 0 0 0 0 0 0 0 0 0 0 0 0 0 0 0 0 0 0 0 0 0 0 0 0 0 0 0 0 0 0 0 0 0 0 0 0 0
0 0 0 0 0 0 0 0 0 0 0 0 0 0 0 0 0 0 0 0 0 0 0 0 0 0 0 0 0 0 0 0 0 0 0 0 0 0 0 0 0 0 0 0 0 0 0 0 0
0 0 0 0 0 0 0 0 0 0 0 0 0 0 0 0 0 0 0 0 0 0 0 0 0 0 0 0 0 0 0 0 0 0 0 0 0 0 0 0 0 0 0 0 0 0 0 0 0
0 0 0 0 0 0 0 0 0 0 0 0 0 0 0 0 0 0 0 0 0 0 0 0 0 0 0 0 0 0 0 0 0 0 0 0 0 0 0 0 0 0 0 0 0 0 0 0 0
0 0 0 0 0 0 0 0 0 0 0 0 0 0 0 0 0 0 0 0 0 0 0 0 0 0 0 0 0 0 0 0 0 0 0 0 0 0 0 0 0 0 0 0 0 0 0 0 0
0 0 0 0 0 0 0 0 0 0 0 0 0 0 0 0 0 0 0 0 0 0 0 0 0 0 0 0 0 0 0 0 0 0 0 0 0 0 0 0 0 0 0 0 0 0 0 0 0
0 0 0 0 0 0 0 0 0 0 0 0 0 0 0 0 0 0 0 0 0 0 0 0 0 0 0 0 0 0 0 0 0 0 0 0 0 0 0 0 0 0 0 0 0 0 0 0 0
0 0 0 0 0 0 0 0 0 0 0 0 0 0 0 0 0 0 0 0 0 0 0 0 0 0 0 0 0 0 0 0 0 0 0 0 0 0 0 0 0 0 0 0 0 0 0 0 0
0 0 0 0 0 0 0 0 0 0 0 0 0 0 0 0 0 0 0 0 0 0 0 0 0 0 0 0 0 0 0 0 0 0 0 0 0 0 0 0 0 0 0 0 0 0 0 0 0
0 0 0 0 0 0 0 0 0 0 0 0 0 0 0 0 0 0 0 0 0 0 0 0 0 0 0 0 0 0 0 0 0 0 0 0 0 0 0 0 0 0 0 0 0 0 0 0 0
0 0 0 0 0 0 0 0 0 0 0 0 0 0 0 0 0 0 0 0 0 0 0 0 0 0 0 0 0 0 0 0 0 0 0 0 0 0 0 0 0 0 0 0 0 0 0 0 0
0 0 0 0 0 0 0 0 0 0 0 0 0 0 0 0 0 0 0 0 0 0 0 0 0 0 0 0 0 0 0 0 0 0 0 0 0 0 0 0 0 0 0 0 0 0 0 0 0
0 0 0 0 0 0 0 0 0 0 0 0 0 0 0 0 0 0 0 0 0 0 0 0 0 0 0 0 0 0 0 0 0 0 0 0 0 0 0 0 0 0 0 0 0 0 0 0 0
0 0 0 0 0 0 0 0 0 0 0 0 0 0 0 0 0 0 0 0 0 0 0 0 0 0 0 0 0 0 0 0 0 0 0 0 0 0 0 0 0 0 0 0 0 0 0 0 0
0 0 0 0 0 0 0 0 0 0 0 0 0 0 0 0 0 0 0 0 0 0 0 0 0 0 0 0 0 0 0 0 0 0 0 0 0 0 0 0 0 0 0 0 0 0 0 0 0
Wind_Speed_500mb
19 14 14 5 5 3 11 14 20 21 15 20 16 46 41 42 19 10 15 11 11 6 8 9 6 7 10 9 1 3 7 7 12 14 15 10 10 9 6 4 8 7 10 14 16 19 20 22 18
18 13 13 4 10 10 11 22 15 14 10 16 27 56 50 37 40 28 14 16 17 6 9 13 8 6 10 8 6 2 4 8 14 15 15 13 10 5 5 10 3 6 5 7 9 11 12 14 11
18 13 7 8 8 10 15 17 7 21 26 25 19 36 18 24 31 15 18 18 18 13 15 6 5 6 7 4 1 3 5 8 10 13 15 13 11 7 4 8 6 4 7 2 3 3 4 7 4
16 7 14 2 18 15 18 13 24 17 24 24 27 26 21 24 14 20 18 17 14 12 6 3 2 5 4 2 2 5 4 4 6 9 11 11 9 8 6 7 6 7 7 4 6 3 4 4 4
19 12 7 14 17 15 13 14 12 13 10 28 26 20 19 23 16 16 17 13 17 9 6 11 6 4 2 3 4 5 5 5 5 8 9 9 8 7 7 7 7 8 7 5 5 10 9 11 7
10 10 8 13 17 14 14 19 16 21 35 33 27 20 18 14 19 11 13 15 10 13 2 20 21 16 13 10 9 12 10 11 9 11 12 12 11 9 9 9 9 9 8 7 10 13 15 13 13
8 8 5 16 14 13 11 16 24 24 33 28 22 13 22 22 18 11 9 12 13 11 4 6 10 19 21 18 16 19 20 16 12 13 13 13 14 13 12 12 11 10 11 11 11 13 16 18 15
8 5 4 12 12 9 5 9 13 26 24 11 22 13 9 21 17 10 11 9 8 8 7 8 13 14 14 23 17 22 24 21 18 17 14 17 18 16 16 16 13 13 14 14 15 15 15 18 19
8 5 8 8 6 11 5 7 16 18 30 40 20 23 15 17 11 9 11 9 4 2 5 8 10 10 7 3 15 16 16 19 19 19 21 28 21 18 29 24 22 22 20 19 19 19 18 19 21
3 6 7 10 13 9 13 12 11 2 26 26 24 21 19 19 18 15 14 15 9 9 10 11 11 16 8 18 10 9 15 14 20 21 26 16 23 14 22 38 37 30 26 23 22 22 24 21 23
8 6 11 10 13 10 5 15 6 8 10 11 13 16 18 20 22 21 19 16 14 12 13 17 16 9 11 13 22 27 29 21 24 20 14 16 14 11 24 30 33 33 31 25 26 22 21 24 23
9 12 6 6 1 5 7 18 10 17 17 17 13 13 16 20 23 21 20 18 17 19 21 23 22 16 6 6 23 22 27 32 29 33 32 26 28 25 20 12 20 35 38 36 26 29 32 33 29
7 15 8 6 5 8 9 9 14 17 18 17 14 14 16 18 18 20 18 18 17 20 20 26 25 27 19 17 20 21 13 18 26 30 34 40 37 38 38 35 25 18 23 35 33 32 31 34 39
8 12 17 13 13 13 13 11 12 18 21 18 17 15 14 15 15 17 18 17 18 19 22 25 29 28 23 24 26 27 20 22 24 20 19 27 37 45 46 47 48 46 36 28 30 35 36 36 36
8 12 11 16 17 10 8 12 17 33 26 22 20 17 14 14 15 16 17 19 15 17 16 24 23 21 23 26 27 27 29 22 21 18 18 26 26 25 28 34 44 52 59 59 44 41 39 43 42
9 15 11 22 26 15 10 9 17 29 28 25 25 22 16 14 15 15 16 15 16 15 18 20 22 22 20 23 18 16 21 19 22 21 28 29 32 32 33 30 30 34 39 45 56 64 58 54 51
14 11 19 10 24 13 14 6 20 28 27 27 24 26 22 20 16 14 12 13 12 10 11 14 16 20 24 18 18 18 17 20 25 28 30 31 32 32 39 41 38 29 36 46 45 43 49 60 68
11 9 16 1 16 11 14 20 22 36 32 28 28 28 27 24 21 15 13 9 8 9 9 12 16 18 21 24 24 28 29 23 27 36 40 34 40 40 36 41 43 37 39 39 40 46 46 50 56
13 16 15 15 12 3 14 21 15 41 32 27 30 30 29 30 28 16 13 9 3 3 5 8 17 23 27 35 39 38 41 39 46 47 41 39 42 49 46 46 41 43 41 41 39 43 45 52 45
14 17 18 3 14 3 15 23 18 38 35 38 35 32 32 29 25 22 18 12 7 9 10 13 18 27 32 36 35 39 38 44 55 50 44 40 47 52 50 51 48 42 45 42 45 42 43 47 45
14 14 13 14 4 15 15 22 27 20 36 34 34 33 31 33 24 27 22 18 14 13 16 26 31 24 27 30 37 44 51 55 61 56 56 60 53 50 53 57 50 48 50 53 49 46 45 48 47
14 16 11 11 10 7 6 10 9 23 18 23 34 36 36 30 28 20 16 13 15 18 20 29 23 28 28 35 42 51 53 59 60 63 65 63 57 58 55 57 58 58 55 55 54 50 46 45 44
7 7 9 11 14 15 17 6 7 22 14 20 34 41 36 31 28 27 24 20 19 22 25 31 32 26 33 42 49 53 56 60 67 65 66 69 67 61 59 59 58 64 63 62 65 60 55 54 61
5 10 16 9 7 8 20 15 9 12 23 18 36 44 42 36 31 28 21 18 20 19 24 25 29 34 38 45 51 55 61 62 67 65 67 67 65 62 60 59 61 63 61 63 67 65 68 66 56
7 9 4 6 6 6 12 8 7 13 12 6 31 46 42 37 31 25 23 21 21 25 29 29 31 40 45 56 55 55 57 61 64 66 65 66 68 66 63 65 63 66 69 65 62 60 61 64 69
11 4 5 8 5 5 8 11 7 14 17 6 11 39 38 32 29 28 26 25 29 29 29 34 39 46 53 52 58 57 58 60 64 67 69 73 74 72 70 73 71 72 70 72 77 79 77 67 66
6 6 6 8 15 7 9 7 8 8 10 9 14 28 30 29 29 26 26 26 28 31 34 38 45 50 53 56 56 62 63 67 70 68 67 69 68 69 68 68 74 75 75 74 77 72 72 72 74
6 9 3 5 6 8 8 12 6 7 10 7 12 16 22 23 23 25 25 27 30 33 38 45 45 51 57 62 64 66 68 68 70 70 72 74 76 76 76 78 74 71 71 73 72 74 82 80 81
6 6 8 2 5 5 7 4 5 13 6 17 20 25 32 33 35 35 31 29 31 38 42 45 50 58 62 64 64 68 70 71 72 67 66 70 74 76 77 78 80 76 74 71 69 73 78 71 77
6 9 6 4 7 6 4 11 17 15 17 18 21 18 14 1 12 31 32 28 34 38 44 47 55 60 60 63 70 70 71 65 65 69 70 65 65 65 68 75 78 86 90 79 73 74 74 66 76
Wind_Direction_500mb
345 15 314 1 348 77 106 69 57 42 34 66 33 87 66 60 41 77 110 84 109 151 101 119 120 114 131 121 190 22 14 19 34 29 31 32 32 32 25 343 14 25 31 43 68 67 61 75 76
355 27 328 298 85 348 75 81 71 61 11 93 36 84 70 55 77 93 72 104 113 137 39 84 82 109 133 128 214 338 61 43 45 38 35 37 38 26 9 354 303 4 10 30 53 90 88 88 67
353 336 277 167 149 212 77 55 90 76 37 7 97 68 56 341 43 87 89 109 108 111 158 274 52 99 121 165 114 61 49 43 21 23 28 36 43 25 352 345 19 335 334 278 35 99 114 121 99
344 261 266 72 81 45 80 52 24 32 52 15 88 87 85 35 57 87 98 104 110 135 217 313 108 119 129 120 13 10 14 8 2 10 15 25 37 31 18 5 359 340 339 274 256 261 239 230 195
305 280 271 96 93 86 69 66 15 66 67 17 26 88 86 68 81 88 97 103 105 119 339 53 33 13 8 345 331 311 289 302 335 342 350 0 14 15 6 0 352 340 321 279 266 240 247 254 263
293 242 292 120 113 100 65 39 26 39 69 15 43 80 72 59 91 97 104 107 115 115 61 46 41 30 20 14 357 338 321 308 324 321 324 332 342 346 341 343 344 342 327 293 267 252 243 257 258
284 342 9 109 111 75 39 28 24 35 33 27 349 90 101 48 74 110 115 111 106 93 68 324 23 341 6 19 37 26 10 352 320 306 309 316 323 327 325 317 320 328 331 318 297 272 248 251 258
319 283 196 22 164 96 58 81 25 13 51 339 17 27 42 9 72 119 126 122 161 126 93 15 327 307 321 320 334 348 345 355 357 2 345 329 310 312 325 315 319 317 319 315 306 289 268 258 256
314 289 30 61 55 111 86 11 90 81 84 59 61 57 44 43 75 147 150 130 87 208 6 190 201 7 317 80 282 303 320 336 349 8 352 360 0 337 327 321 327 321 310 303 301 299 288 271 263
297 6 44 29 44 99 92 28 359 153 120 79 60 58 65 77 81 85 76 72 43 349 308 278 257 254 327 345 332 315 309 316 311 310 307 318 346 329 300 306 306 310 302 295 289 290 291 281 273
40 94 126 60 63 18 353 109 17 100 87 78 80 69 73 79 85 86 81 75 62 55 44 28 22 305 6 335 272 266 277 281 284 296 287 288 261 279 312 325 328 322 312 302 297 293 286 284 273
127 57 13 111 29 260 243 115 83 35 103 135 122 99 94 90 88 88 86 82 75 59 60 54 51 48 56 299 268 281 270 270 285 278 277 282 278 284 287 266 301 308 305 310 313 306 300 292 277
100 130 108 131 153 88 126 94 125 120 135 137 127 121 107 101 97 95 90 84 82 67 62 62 63 52 43 33 29 20 351 293 290 284 278 273 274 276 277 276 272 276 297 302 297 279 277 280 284
97 132 141 158 146 139 127 139 154 170 160 154 149 135 125 118 109 107 100 91 78 75 64 66 56 48 47 46 35 23 41 22 21 1 324 288 280 277 277 275 275 271 268 264 264 274 281 272 276
169 163 181 183 173 177 222 185 224 161 173 171 167 150 140 131 125 116 111 101 83 68 53 65 51 55 51 44 35 20 10 11 7 4 347 327 334 327 308 291 280 275 268 267 261 255 252 254 256
227 222 205 180 179 144 157 288 140 166 183 185 184 163 157 152 145 130 120 109 105 76 47 31 44 27 33 31 21 18 357 7 351 355 332 322 326 322 314 306 301 303 296 287 274 259 257 256 255
200 244 230 168 191 149 179 257 154 179 195 198 189 172 175 169 155 148 135 127 103 83 64 38 20 22 1 7 350 346 338 345 335 321 313 314 316 315 314 309 304 298 297 303 302 296 267 266 256
329 259 311 253 189 214 216 237 169 186 196 209 208 188 183 184 182 169 168 144 143 97 41 21 359 355 350 341 333 333 336 335 322 323 321 325 316 314 310 308 309 304 295 294 302 302 295 271 262
330 305 297 297 112 179 247 264 251 181 195 216 213 206 194 199 183 194 193 175 166 13 311 2 336 335 342 337 336 335 337 331 322 326 322 317 306 309 305 305 311 305 298 296 296 295 300 299 287
300 284 282 126 131 168 270 275 239 172 185 200 212 214 203 199 181 200 213 216 224 244 294 298 311 326 334 327 329 323 322 308 311 320 312 302 297 297 300 301 298 299 299 297 290 288 292 290 296
259 262 298 337 19 229 251 276 250 183 173 196 217 213 215 203 200 205 214 230 244 285 277 289 305 313 310 319 310 311 307 312 315 317 309 306 308 299 296 298 295 290 288 289 288 289 283 287 288
289 17 10 322 320 278 139 289 266 148 158 188 205 218 215 203 206 218 206 236 258 267 279 287 291 286 300 299 301 308 312 311 311 306 308 309 305 298 294 292 291 289 289 285 285 285 282 279 286
57 359 323 311 290 301 255 220 312 129 192 202 203 210 213 209 212 225 233 236 250 268 272 265 277 294 292 296 311 310 307 304 305 306 304 303 304 302 300 298 293 286 283 283 278 277 278 276 273
44 279 243 247 247 254 231 172 196 178 206 192 195 204 208 210 213 217 225 247 261 267 269 277 281 294 297 308 307 305 306 307 307 308 307 305 304 301 297 293 285 283 286 284 280 278 271 269 272
219 276 274 228 191 258 69 189 294 114 86 22 177 190 198 199 205 215 224 244 243 261 278 286 295 296 301 304 307 307 306 304 304 305 304 303 302 301 299 296 292 286 281 281 280 276 277 273 269
200 329 307 304 8 359 75 234 207 89 87 93 142 174 181 189 204 213 227 241 258 270 278 289 295 298 303 307 305 306 305 302 299 298 300 301 303 301 298 297 295 292 287 284 278 276 274 276 274
115 207 3 298 264 267 234 178 93 110 91 116 131 153 171 192 203 216 236 253 266 273 284 291 298 304 305 306 305 302 299 298 302 303 303 304 302 301 299 296 293 290 290 286 275 276 274 272 269
275 338 253 223 270 282 313 344 89 160 149 178 163 178 189 199 217 224 244 260 270 278 287 298 302 304 303 301 301 300 301 302 302 301 300 298 299 300 298 295 293 295 292 284 281 276 275 273 272
163 226 216 293 261 274 319 247 111 125 116 176 187 207 209 214 218 230 239 254 272 285 295 298 301 303 302 304 304 303 303 301 302 304 304 304 304 304 301 299 296 295 292 288 287 281 276 266 271
328 318 334 195 309 298 226 268 59 82 88 40 31 22 45 191 250 234 231 269 287 289 299 300 304 305 306 302 302 301 303 305 304 305 308 306 302 299 301 298 294 292 289 291 285 279 273 272 269
Wind_Speed_850mb
19 14 14 5 5 3 11 14 20 21 15 20 16 46 41 42 19 10 15 11 11 6 8 9 6 7 10 9 1 3 7 7 12 14 15 10 10 9 6 4 8 7 10 14 16 19 20 22 18
18 13 13 4 10 10 11 22 15 14 10 16 27 56 50 37 40 28 14 16 17 6 9 13 8 6 10 8 6 2 4 8 14 15 15 13 10 5 5 10 3 6 5 7 9 11 12 14 11
18 13 7 8 8 10 15 17 7 21 26 25 19 36 18 24 31 15 18 18 18 13 15 6 5 6 7 4 1 3 5 8 10 13 15 13 11 7 4 8 6 4 7 2 3 3 4 7 4
16 7 14 2 18 15 18 13 24 17 24 24 27 26 21 24 14 20 18 17 14 12 6 3 2 5 4 2 2 5 4 4 6 9 11 11 9 8 6 7 6 7 7 4 6 3 4 4 4
19 12 7 14 17 15 13 14 12 13 10 28 26 20 19 23 16 16 17 13 17 9 6 11 6 4 2 3 4 5 5 5 5 8 9 9 8 7 7 7 7 8 7 5 5 10 9 11 7
10 10 8 13 17 14 14 19 16 21 35 33 27 20 18 14 19 11 13 15 10 13 2 20 21 16 13 10 9 12 10 11 9 11 12 12 11 9 9 9 9 9 8 7 10 13 15 13 13
8 8 5 16 14 13 11 16 24 24 33 28 22 13 22 22 18 11 9 12 13 11 4 6 10 19 21 18 16 19 20 16 12 13 13 13 14 13 12 12 11 10 11 11 11 13 16 18 15
8 5 4 12 12 9 5 9 13 26 24 11 22 13 9 21 17 10 11 9 8 8 7 8 13 14 14 23 17 22 24 21 18 17 14 17 18 16 16 16 13 13 14 14 15 15 15 18 19
8 5 8 8 6 11 5 7 16 18 30 40 20 23 15 17 11 9 11 9 4 2 5 8 10 10 7 3 15 16 16 19 19 19 21 28 21 18 29 24 22 22 20 19 19 19 18 19 21
3 6 7 10 13 9 13 12 11 2 26 26 24 21 19 19 18 15 14 15 9 9 10 11 11 16 8 18 10 9 15 14 20 21 26 16 23 14 22 38 37 30 26 23 22 22 24 21 23
8 6 11 10 13 10 5 15 6 8 10 11 13 16 18 20 22 21 19 16 14 12 13 17 16 9 11 13 22 27 29 21 24 20 14 16 14 11 24 30 33 33 31 25 26 22 21 24 23
9 12 6 6 1 5 7 18 10 17 17 17 13 13 16 20 23 21 20 18 17 19 21 23 22 16 6 6 23 22 27 32 29 33 32 26 28 25 20 12 20 35 38 36 26 29 32 33 29
7 15 8 6 5 8 9 9 14 17 18 17 14 14 16 18 18 20 18 18 17 20 20 26 25 27 19 17 20 21 13 18 26 30 34 40 37 38 38 35 25 18 23 35 33 32 31 34 39
8 12 17 13 13 13 13 11 12 18 21 18 17 15 14 15 15 17 18 17 18 19 22 25 29 28 23 24 26 27 20 22 24 20 19 27 37 45 46 47 48 46 36 28 30 35 36 36 36
8 12 11 16 17 10 8 12 17 33 26 22 20 17 14 14 15 16 17 19 15 17 16 24 23 21 23 26 27 27 29 22 21 18 18 26 26 25 28 34 44 52 59 59 44 41 39 43 42
9 15 11 22 26 15 10 9 17 29 28 25 25 22 16 14 15 15 16 15 16 15 18 20 22 22 20 23 18 16 21 19 22 21 28 29 32 32 33 30 30 34 39 45 56 64 58 54 51
14 11 19 10 24 13 14 6 20 28 27 27 24 26 22 20 16 14 12 13 12 10 11 14 16 20 24 18 18 18 17 20 25 28 30 31 32 32 39 41 38 29 36 46 45 43 49 60 68
11 9 16 1 16 11 14 20 22 36 32 28 28 28 27 24 21 15 13 9 8 9 9 12 16 18 21 24 24 28 29 23 27 36 40 34 40 40 36 41 43 37 39 39 40 46 46 50 56
13 16 15 15 12 3 14 21 15 41 32 27 30 30 29 30 28 16 13 9 3 3 5 8 17 23 27 35 39 38 41 39 46 47 41 39 42 49 46 46 41 43 41 41 39 43 45 52 45
14 17 18 3 14 3 15 23 18 38 35 38 35 32 32 29 25 22 18 12 7 9 10 13 18 27 32 36 35 39 38 44 55 50 44 40 47 52 50 51 48 42 45 42 45 42 43 47 45
14 14 13 14 4 15 15 22 27 20 36 34 34 33 31 33 24 27 22 18 14 13 16 26 31 24 27 30 37 44 51 55 61 56 56 60 53 50 53 57 50 48 50 53 49 46 45 48 47
14 16 11 11 10 7 6 10 9 23 18 23 34 36 36 30 28 20 16 13 15 18 20 29 23 28 28 35 42 51 53 59 60 63 65 63 57 58 55 57 58 58 55 55 54 50 46 45 44
7 7 9 11 14 15 17 6 7 22 14 20 34 41 36 31 28 27 24 20 19 22 25 31 32 26 33 42 49 53 56 60 67 65 66 69 67 61 59 59 58 64 63 62 65 60 55 54 61
5 10 16 9 7 8 20 15 9 12 23 18 36 44 42 36 31 28 21 18 20 19 24 25 29 34 38 45 51 55 61 62 67 65 67 67 65 62 60 59 61 63 61 63 67 65 68 66 56
7 9 4 6 6 6 12 8 7 13 12 6 31 46 42 37 31 25 23 21 21 25 29 29 31 40 45 56 55 55 57 61 64 66 65 66 68 66 63 65 63 66 69 65 62 60 61 64 69
11 4 5 8 5 5 8 11 7 14 17 6 11 39 38 32 29 28 26 25 29 29 29 34 39 46 53 52 58 57 58 60 64 67 69 73 74 72 70 73 71 72 70 72 77 79 77 67 66
6 6 6 8 15 7 9 7 8 8 10 9 14 28 30 29 29 26 26 26 28 31 34 38 45 50 53 56 56 62 63 67 70 68 67 69 68 69 68 68 74 75 75 74 77 72 72 72 74
6 9 3 5 6 8 8 12 6 7 10 7 12 16 22 23 23 25 25 27 30 33 38 45 45 51 57 62 64 66 68 68 70 70 72 74 76 76 76 78 74 71 71 73 72 74 82 80 81
6 6 8 2 5 5 7 4 5 13 6 17 20 25 32 33 35 35 31 29 31 38 42 45 50 58 62 64 64 68 70 71 72 67 66 70 74 76 77 78 80 76 74 71 69 73 78 71 77
6 9 6 4 7 6 4 11 17 15 17 18 21 18 14 1 12 31 32 28 34 38 44 47 55 60 60 63 70 70 71 65 65 69 70 65 65 65 68 75 78 86 90 79 73 74 74 66 76
Wind_Direction_850mb
345 15 314 1 348 77 106 69 57 42 34 66 33 87 66 60 41 77 110 84 109 151 101 119 120 114 131 121 190 22 14 19 34 29 31 32 32 32 25 343 14 25 31 43 68 67 61 75 76
355 27 328 298 85 348 75 81 71 61 11 93 36 84 70 55 77 93 72 104 113 137 39 84 82 109 133 128 214 338 61 43 45 38 35 37 38 26 9 354 303 4 10 30 53 90 88 88 67
353 336 277 167 149 212 77 55 90 76 37 7 97 68 56 341 43 87 89 109 108 111 158 274 52 99 121 165 114 61 49 43 21 23 28 36 43 25 352 345 19 335 334 278 35 99 114 121 99
344 261 266 72 81 45 80 52 24 32 52 15 88 87 85 35 57 87 98 104 110 135 217 313 108 119 129 120 13 10 14 8 2 10 15 25 37 31 18 5 359 340 339 274 256 261 239 230 195
305 280 271 96 93 86 69 66 15 66 67 17 26 88 86 68 81 88 97 103 105 119 339 53 33 13 8 345 331 311 289 302 335 342 350 0 14 15 6 0 352 340 321 279 266 240 247 254 263
293 242 292 120 113 100 65 39 26 39 69 15 43 80 72 59 91 97 104 107 115 115 61 46 41 30 20 14 357 338 321 308 324 321 324 332 342 346 341 343 344 342 327 293 267 252 243 257 258
284 342 9 109 111 75 39 28 24 35 33 27 349 90 101 48 74 110 115 111 106 93 68 324 23 341 6 19 37 26 10 352 320 306 309 316 323 327 325 317 320 328 331 318 297 272 248 251 258
319 283 196 22 164 96 58 81 25 13 51 339 17 27 42 9 72 119 126 122 161 126 93 15 327 307 321 320 334 348 345 355 357 2 345 329 310 312 325 315 319 317 319 315 306 289 268 258 256
314 289 30 61 55 111 86 11 90 81 84 59 61 57 44 43 75 147 150 130 87 208 6 190 201 7 317 80 282 303 320 336 349 8 352 360 0 337 327 321 327 321 310 303 301 299 288 271 263
297 6 44 29 44 99 92 28 359 153 120 79 60 58 65 77 81 85 76 72 43 349 308 278 257 254 327 345 332 315 309 316 311 310 307 318 346 329 300 306 306 310 302 295 289 290 291 281 273
40 94 126 60 63 18 353 109 17 100 87 78 80 69 73 79 85 86 81 75 62 55 44 28 22 305 6 335 272 266 277 281 284 296 287 288 261 279 312 325 328 322 312 302 297 293 286 284 273
127 57 13 111 29 260 243 115 83 35 103 135 122 99 94 90 88 88 86 82 75 59 60 54 51 48 56 299 268 281 270 270 285 278 277 282 278 284 287 266 301 308 305 310 313 306 300 292 277
100 130 108 131 153 88 126 94 125 120 135 137 127 121 107 101 97 95 90 84 82 67 62 62 63 52 43 33 29 20 351 293 290 284 278 273 274 276 277 276 272 276 297 302 297 279 277 280 284
97 132 141 158 146 139 127 139 154 170 160 154 149 135 125 118 109 107 100 91 78 75 64 66 56 48 47 46 35 23 41 22 21 1 324 288 280 277 277 275 275 271 268 264 264 274 281 272 276
169 163 181 183 173 177 222 185 224 161 173 171 167 150 140 131 125 116 111 101 83 68 53 65 51 55 51 44 35 20 10 11 7 4 347 327 334 327 308 291 280 275 268 267 261 255 252 254 256
227 222 205 180 179 144 157 288 140 166 183 185 184 163 157 152 145 130 120 109 105 76 47 31 44 27 33 31 21 18 357 7 351 355 332 322 326 322 314 306 301 303 296 287 274 259 257 256 255
200 244 230 168 191 149 179 257 154 179 195 198 189 172 175 169 155 148 135 127 103 83 64 38 20 22 1 7 350 346 338 345 335 321 313 314 316 315 314 309 304 298 297 303 302 296 267 266 256
329 259 311 253 189 214 216 237 169 186 196 209 208 188 183 184 182 169 168 144 143 97 41 21 359 355 350 341 333 333 336 335 322 323 321 325 316 314 310 308 309 304 295 294 302 302 295 271 262
330 305 297 297 112 179 247 264 251 181 195 216 213 206 194 199 183 194 193 175 166 13 311 2 336 335 342 337 336 335 337 331 322 326 322 317 306 309 305 305 311 305 298 296 296 295 300 299 287
300 284 282 126 131 168 270 275 239 172 185 200 212 214 203 199 181 200 213 216 224 244 294 298 311 326 334 327 329 323 322 308 311 320 312 302 297 297 300 301 298 299 299 297 290 288 292 290 296
259 262 298 337 19 229 251 276 250 183 173 196 217 213 215 203 200 205 214 230 244 285 277 289 305 313 310 319 310 311 307 312 315 317 309 306 308 299 296 298 295 290 288 289 288 289 283 287 288
289 17 10 322 320 278 139 289 266 148 158 188 205 218 215 203 206 218 206 236 258 267 279 287 291 286 300 299 301 308 312 311 311 306 308 309 305 298 294 292 291 289 289 285 285 285 282 279 286
57 359 323 311 290 301 255 220 312 129 192 202 203 210 213 209 212 225 233 236 250 268 272 265 277 294 292 296 311 310 307 304 305 306 304 303 304 302 300 298 293 286 283 283 278 277 278 276 273
44 279 243 247 247 254 231 172 196 178 206 192 195 204 208 210 213 217 225 247 261 267 269 277 281 294 297 308 307 305 306 307 307 308 307 305 304 301 297 293 285 283 286 284 280 278 271 269 272
219 276 274 228 191 258 69 189 294 114 86 22 177 190 198 199 205 215 224 244 243 261 278 286 295 296 301 304 307 307 306 304 304 305 304 303 302 301 299 296 292 286 281 281 280 276 277 273 269
200 329 307 304 8 359 75 234 207 89 87 93 142 174 181 189 204 213 227 241 258 270 278 289 295 298 303 307 305 306 305 302 299 298 300 301 303 301 298 297 295 292 287 284 278 276 274 276 274
115 207 3 298 264 267 234 178 93 110 91 116 131 153 171 192 203 216 236 253 266 273 284 291 298 304 305 306 305 302 299 298 302 303 303 304 302 301 299 296 293 290 290 286 275 276 274 272 269
275 338 253 223 270 282 313 344 89 160 149 178 163 178 189 199 217 224 244 260 270 278 287 298 302 304 303 301 301 300 301 302 302 301 300 298 299 300 298 295 293 295 292 284 281 276 275 273 272
163 226 216 293 261 274 319 247 111 125 116 176 187 207 209 214 218 230 239 254 272 285 295 298 301 303 302 304 304 303 303 301 302 304 304 304 304 304 301 299 296 295 292 288 287 281 276 266 271
328 318 334 195 309 298 226 268 59 82 88 40 31 22 45 191 250 234 231 269 287 289 299 300 304 305 306 302 302 301 303 305 304 305 308 306 302 299 301 298 294 292 289 291 285 279 273 272 269